TimeMST,TemperatureF,Dew PointF,Humidity,Sea Level PressureIn,VisibilityMPH,Wind Direction,Wind SpeedMPH,Gust SpeedMPH,PrecipitationIn,Events,Conditions,WindDirDegrees,DateUTC
12:15 AM,37.4,37.4,100,30.24,5.0,Calm,Calm,-,N/A,,Overcast,0,2012-11-14 07:15:00
12:35 AM,37.4,37.4,100,30.25,4.0,WSW,3.5,-,N/A,,Overcast,240,2012-11-14 07:35:00
12:55 AM,35.6,35.6,100,30.25,5.0,Calm,Calm,-,N/A,,Overcast,0,2012-11-14 07:55:00
1:15 AM,37.4,37.4,100,30.25,4.0,Calm,Calm,-,N/A,,Overcast,0,2012-11-14 08:15:00
1:55 AM,35.6,35.6,100,30.24,4.0,Calm,Calm,-,N/A,,Overcast,0,2012-11-14 08:55:00
2:15 AM,35.6,35.6,100,30.25,4.0,Calm,Calm,-,N/A,,Overcast,0,2012-11-14 09:15:00
2:35 AM,35.6,35.6,100,30.25,4.0,Calm,Calm,-,N/A,,Overcast,0,2012-11-14 09:35:00
2:55 AM,35.6,35.6,100,30.25,4.0,Calm,Calm,-,N/A,,Overcast,0,2012-11-14 09:55:00
3:15 AM,35.6,35.6,100,30.25,3.0,Calm,Calm,-,N/A,,Overcast,0,2012-11-14 10:15:00
3:35 AM,35.6,35.6,100,30.25,3.0,Calm,Calm,-,N/A,,Overcast,0,2012-11-14 10:35:00
3:55 AM,35.6,35.6,100,30.25,2.5,West,3.5,-,N/A,,Overcast,280,2012-11-14 10:55:00
4:15 AM,35.6,35.6,100,30.24,2.5,Calm,Calm,-,N/A,,Overcast,0,2012-11-14 11:15:00
4:35 AM,35.6,35.6,100,30.25,2.5,Calm,Calm,-,N/A,,Overcast,0,2012-11-14 11:35:00
4:55 AM,35.6,35.6,100,30.25,3.0,Calm,Calm,-,N/A,,Overcast,0,2012-11-14 11:55:00
5:15 AM,35.6,35.6,100,30.25,3.0,Calm,Calm,-,N/A,,Overcast,0,2012-11-14 12:15:00
5:35 AM,35.6,35.6,100,30.26,4.0,North,3.5,-,N/A,,Overcast,350,2012-11-14 12:35:00
5:55 AM,35.6,35.6,100,30.26,4.0,Calm,Calm,-,N/A,,Overcast,0,2012-11-14 12:55:00
6:15 AM,35.6,35.6,100,30.26,3.0,Calm,Calm,-,N/A,,Overcast,0,2012-11-14 13:15:00
6:35 AM,35.6,35.6,100,30.26,4.0,Calm,Calm,-,N/A,,Overcast,0,2012-11-14 13:35:00
6:55 AM,35.6,35.6,100,30.27,3.0,Calm,Calm,-,N/A,,Overcast,0,2012-11-14 13:55:00
7:15 AM,35.6,35.6,100,30.27,3.0,Calm,Calm,-,N/A,,Overcast,0,2012-11-14 14:15:00
7:35 AM,35.6,35.6,100,30.28,3.0,Calm,Calm,-,N/A,,Overcast,0,2012-11-14 14:35:00
7:55 AM,35.6,35.6,100,30.28,2.5,Calm,Calm,-,N/A,,Overcast,0,2012-11-14 14:55:00
8:15 AM,37.4,37.4,100,30.29,3.0,Calm,Calm,-,N/A,,Overcast,0,2012-11-14 15:15:00
8:35 AM,37.4,37.4,100,30.30,4.0,Calm,Calm,-,N/A,,Overcast,0,2012-11-14 15:35:00
8:55 AM,37.4,37.4,100,30.30,4.0,Calm,Calm,-,N/A,,Overcast,0,2012-11-14 15:55:00
9:15 AM,37.4,37.4,100,30.30,4.0,Calm,Calm,-,N/A,,Overcast,0,2012-11-14 16:15:00
9:35 AM,37.4,37.4,100,30.31,5.0,NNW,3.5,-,N/A,,Overcast,340,2012-11-14 16:35:00
9:55 AM,37.4,37.4,100,30.31,5.0,NNW,5.8,-,N/A,,Overcast,340,2012-11-14 16:55:00
10:15 AM,39.2,39.2,100,30.32,5.0,NNW,5.8,-,N/A,,Overcast,340,2012-11-14 17:15:00
10:35 AM,37.4,37.4,100,30.32,4.0,NNW,6.9,-,N/A,,Overcast,340,2012-11-14 17:35:00
10:55 AM,39.2,39.2,100,30.32,4.0,NNW,5.8,-,N/A,,Overcast,330,2012-11-14 17:55:00
11:15 AM,39.2,39.2,100,30.32,3.0,NNW,6.9,-,N/A,,Overcast,330,2012-11-14 18:15:00
11:35 AM,39.2,39.2,100,30.32,3.0,North,4.6,-,N/A,,Overcast,350,2012-11-14 18:35:00
11:55 AM,39.2,39.2,100,30.31,1.5,NNW,3.5,-,N/A,,Overcast,330,2012-11-14 18:55:00
12:15 PM,39.2,39.2,100,30.31,3.0,WNW,4.6,-,N/A,,Overcast,300,2012-11-14 19:15:00
12:35 PM,39.2,37.4,93,30.31,2.5,Calm,Calm,-,N/A,,Overcast,0,2012-11-14 19:35:00
12:55 PM,39.2,37.4,93,30.30,2.5,Calm,Calm,-,N/A,,Overcast,0,2012-11-14 19:55:00
1:15 PM,39.2,37.4,93,30.30,1.8,NNW,3.5,-,N/A,,Overcast,340,2012-11-14 20:15:00
1:35 PM,39.2,37.4,93,30.30,2.0,NW,4.6,-,N/A,,Overcast,320,2012-11-14 20:35:00
1:55 PM,39.2,37.4,93,30.30,5.0,NNW,4.6,-,N/A,,Overcast,330,2012-11-14 20:55:00
2:15 PM,39.2,37.4,93,30.30,6.0,North,5.8,-,N/A,,Overcast,10,2012-11-14 21:15:00
2:35 PM,39.2,37.4,93,30.30,5.0,NNW,6.9,-,N/A,,Overcast,340,2012-11-14 21:35:00
2:55 PM,39.2,37.4,93,30.31,7.0,NNW,6.9,-,N/A,,Overcast,340,2012-11-14 21:55:00
3:15 PM,39.2,37.4,93,30.31,7.0,WNW,5.8,-,N/A,,Overcast,300,2012-11-14 22:15:00
3:35 PM,39.2,37.4,93,30.30,9.0,WNW,3.5,-,N/A,,Overcast,290,2012-11-14 22:35:00
3:55 PM,39.2,37.4,93,30.31,9.0,NW,4.6,-,N/A,,Overcast,310,2012-11-14 22:55:00
4:15 PM,41.0,37.4,87,30.31,10.0,WNW,5.8,-,N/A,,Overcast,290,2012-11-14 23:15:00
4:35 PM,41.0,37.4,87,30.31,10.0,WNW,4.6,-,N/A,,Overcast,290,2012-11-14 23:35:00
4:55 PM,39.2,37.4,93,30.31,6.0,NW,3.5,-,N/A,,Overcast,320,2012-11-14 23:55:00
5:15 PM,41.0,37.4,87,30.31,4.0,North,3.5,-,N/A,,Overcast,360,2012-11-15 00:15:00
5:35 PM,41.0,37.4,87,30.31,4.0,NW,3.5,-,N/A,,Overcast,310,2012-11-15 00:35:00
5:55 PM,41.0,37.4,87,30.31,9.0,NW,3.5,-,N/A,,Overcast,320,2012-11-15 00:55:00
6:15 PM,39.2,37.4,93,30.31,10.0,NNW,3.5,-,N/A,,Overcast,330,2012-11-15 01:15:00
6:35 PM,39.2,37.4,93,30.32,10.0,NW,3.5,-,N/A,,Overcast,320,2012-11-15 01:35:00
6:55 PM,39.2,37.4,93,30.32,-9999.0,NW,4.6,-,N/A,,Unknown,310,2012-11-15 01:55:00
7:15 PM,39.2,37.4,93,30.32,9.0,NW,3.5,-,N/A,,Overcast,320,2012-11-15 02:15:00
7:55 PM,39.2,37.4,93,30.33,5.0,North,4.6,-,N/A,,Overcast,360,2012-11-15 02:55:00
8:15 PM,39.2,37.4,93,30.33,5.0,North,4.6,-,N/A,,Overcast,10,2012-11-15 03:15:00
8:35 PM,39.2,37.4,93,30.33,8.0,North,4.6,-,N/A,,Overcast,10,2012-11-15 03:35:00
8:55 PM,39.2,37.4,93,30.33,9.0,NNE,4.6,-,N/A,,Overcast,20,2012-11-15 03:55:00
9:15 PM,39.2,37.4,93,30.34,10.0,Calm,Calm,-,N/A,,Overcast,0,2012-11-15 04:15:00
9:35 PM,39.2,37.4,93,30.34,10.0,Calm,Calm,-,N/A,,Overcast,0,2012-11-15 04:35:00
9:55 PM,39.2,37.4,93,30.34,10.0,Calm,Calm,-,N/A,,Overcast,0,2012-11-15 04:55:00
10:15 PM,39.2,37.4,93,30.34,10.0,Calm,Calm,-,N/A,,Overcast,0,2012-11-15 05:15:00
10:35 PM,39.2,37.4,93,30.35,10.0,Calm,Calm,-,N/A,,Overcast,0,2012-11-15 05:35:00
10:55 PM,39.2,37.4,93,30.35,10.0,Calm,Calm,-,N/A,,Overcast,0,2012-11-15 05:55:00
11:15 PM,39.2,37.4,93,30.35,8.0,East,3.5,-,N/A,,Overcast,100,2012-11-15 06:15:00
11:35 PM,39.2,37.4,93,30.35,10.0,Calm,Calm,-,N/A,,Overcast,0,2012-11-15 06:35:00
11:55 PM,39.2,37.4,93,30.35,7.0,East,3.5,-,N/A,,Overcast,90,2012-11-15 06:55:00